Starlink 5067

operational
NORAD ID: 55653 Int'l Des: 2023-021 Owner: SPXS Country: US Constellation: starlink
LEOCIRCULAR

About Starlink 5067

Description loading...

Live Position

Loading 3D Globe...

Upcoming Passes

Altitude History

Altitude vs Time

uPlot chart will show altitude changes over time

Two-Line Element Set

1 55653U 23021AB 25306.29918777 -.00000076 00000-0 14118-5 0 9992
2 55653 69.9970 145.4874 0002905 268.6387 91.4439 14.98327382149714
Epoch: Nov 2, 2025 • Age: 39 hours

Current Status

Altitude 581.9 km
Velocity 7.57 km/s
Sub-Earth Point 52.86°N, 158.2°E
Launch Date Feb 17, 2023
Age 2.7 years
Type internet

Technical Details

Classification Payload
Mass 305.00 kg
Dry Mass 290.00 kg
Total Mass 305.00 kg
Length 0.20 m
Diameter 2.80 m
Span 9.00 m
Shape Box + pan
Manufacturer SPXS
Bus Type Starlink
Phase Status In Orbit
Owner/State SPXS/US

Large Constellations

Loading constellations...